DKH5852 VMMC-ZBTJ

Flight info

Callsign DKH5852
Flight time 2h 47m
Altitude 35100
Route NLG W6 CON V5 BEMAG R473 OPUNI V52 GUSIV W37 OMDEK
Aircraft A320/M-SDE3FGHILORWXY/LB1

Departure

Time 2026-04-23 03:31
Airport Macau International Airport (VMMC)

Arrival

Time 2026-04-23 06:19
Airport Tianjin Binhai International Airport (ZBTJ)
Time Latitude Longitude Altitude Speed Heading
2026-04-23 02:57 22.15657 113.57706 29 ft 0 kts 123°
2026-04-23 03:12 22.15657 113.57705 29 ft 0 kts 123°
2026-04-23 03:21 22.15658 113.57705 29 ft 0 kts 123°
2026-04-23 03:22 22.15659 113.57703 29 ft 2 kts 123°
2026-04-23 03:22 22.15667 113.57688 28 ft 2 kts 123°
2026-04-23 03:22 22.15675 113.57673 28 ft 2 kts 118°
2026-04-23 03:22 22.15683 113.57657 28 ft 2 kts 108°
2026-04-23 03:23 22.15687 113.57639 29 ft 2 kts 83°
2026-04-23 03:23 22.15681 113.57623 29 ft 2 kts 39°
2026-04-23 03:23 22.15676 113.57619 29 ft 0 kts 37°
2026-04-23 03:25 22.15709 113.57644 29 ft 10 kts 27°
2026-04-23 03:26 22.15766 113.57671 29 ft 8 kts 20°
2026-04-23 03:26 22.15814 113.57687 29 ft 6 kts 16°
2026-04-23 03:26 22.15851 113.57697 29 ft 5 kts 14°
2026-04-23 03:26 22.15877 113.57704 29 ft 3 kts 14°
2026-04-23 03:27 22.15892 113.57708 29 ft 1 kts 14°
2026-04-23 03:27 22.15896 113.57709 29 ft 0 kts 14°
2026-04-23 03:27 22.15898 113.57710 29 ft 2 kts 14°
2026-04-23 03:27 22.15958 113.57727 29 ft 15 kts 14°
2026-04-23 03:28 22.16071 113.57763 29 ft 16 kts 30°
2026-04-23 03:28 22.16119 113.57865 29 ft 14 kts 70°
2026-04-23 03:28 22.16150 113.57959 28 ft 12 kts 70°
2026-04-23 03:28 22.16177 113.58042 28 ft 11 kts 72°
2026-04-23 03:29 22.16201 113.58118 28 ft 10 kts 71°
2026-04-23 03:29 22.16229 113.58206 28 ft 17 kts 71°
2026-04-23 03:29 22.16279 113.58363 28 ft 26 kts 71°
2026-04-23 03:29 22.16336 113.58545 28 ft 26 kts 71°
2026-04-23 03:30 22.16352 113.58596 28 ft 0 kts 71°
2026-04-23 03:30 22.16355 113.58611 28 ft 8 kts 89°
2026-04-23 03:30 22.16312 113.58641 28 ft 8 kts 161°
2026-04-23 03:31 22.16186 113.58687 29 ft 44 kts 162°
2026-04-23 03:31 22.15641 113.58887 27 ft 119 kts 161°
2026-04-23 03:31 22.14665 113.59251 90 ft 170 kts 163°
2026-04-23 03:31 22.13561 113.59664 898 ft 168 kts 163°
2026-04-23 03:32 22.12453 113.60087 1730 ft 171 kts 163°
2026-04-23 03:32 22.11260 113.60541 2280 ft 193 kts 163°
2026-04-23 03:32 22.09928 113.61048 2882 ft 209 kts 163°
2026-04-23 03:32 22.08538 113.61581 3695 ft 215 kts 163°
2026-04-23 03:33 22.07120 113.62125 4685 ft 218 kts 162°
2026-04-23 03:33 22.05656 113.62686 5515 ft 234 kts 163°
2026-04-23 03:33 22.03991 113.63317 5822 ft 275 kts 163°
2026-04-23 03:33 22.02077 113.64041 5897 ft 296 kts 162°
2026-04-23 03:34 22.00193 113.64756 5910 ft 277 kts 165°
2026-04-23 03:34 21.98369 113.65001 5906 ft 255 kts 188°
2026-04-23 03:34 21.96755 113.64469 5912 ft 235 kts 212°
2026-04-23 03:34 21.95552 113.63393 5932 ft 221 kts 234°
2026-04-23 03:35 21.94856 113.61934 6636 ft 220 kts 253°
2026-04-23 03:35 21.94653 113.60303 7532 ft 223 kts 272°
2026-04-23 03:35 21.95002 113.58664 8532 ft 229 kts 292°
2026-04-23 03:35 21.95934 113.57244 9521 ft 239 kts 314°
2026-04-23 03:36 21.97375 113.56288 10360 ft 251 kts 338°
2026-04-23 03:36 21.99132 113.56044 11196 ft 262 kts
2026-04-23 03:36 22.00935 113.56460 12046 ft 267 kts 10°
2026-04-23 03:36 22.02742 113.56940 12899 ft 269 kts 10°
2026-04-23 03:37 22.04571 113.57423 13730 ft 272 kts
2026-04-23 03:37 22.06422 113.57910 14463 ft 275 kts
2026-04-23 03:37 22.08267 113.58393 15200 ft 278 kts
2026-04-23 03:37 22.10185 113.58895 15860 ft 282 kts
2026-04-23 03:38 22.12078 113.59387 16462 ft 286 kts
2026-04-23 03:38 22.14025 113.59896 17050 ft 292 kts
2026-04-23 03:38 22.16073 113.60482 17195 ft 316 kts 11°
2026-04-23 03:38 22.18265 113.61155 17340 ft 340 kts 12°
2026-04-23 03:39 22.20608 113.61898 17489 ft 363 kts 12°
2026-04-23 03:39 22.23101 113.62693 17608 ft 384 kts 12°
2026-04-23 03:39 22.25725 113.63529 17743 ft 403 kts 13°
2026-04-23 03:39 22.28452 113.64440 17871 ft 417 kts 18°
2026-04-23 03:40 22.31006 113.66041 18003 ft 433 kts 33°
2026-04-23 03:40 22.33430 113.68043 18125 ft 444 kts 38°
2026-04-23 03:40 22.35740 113.70332 18250 ft 456 kts 42°
2026-04-23 03:40 22.38004 113.72778 18403 ft 464 kts 43°
2026-04-23 03:41 22.40305 113.75246 18640 ft 468 kts 41°
2026-04-23 03:41 22.42681 113.77663 18909 ft 470 kts 40°
2026-04-23 03:41 22.45137 113.80007 19191 ft 472 kts 38°
2026-04-23 03:41 22.47656 113.82299 19485 ft 474 kts 37°
2026-04-23 03:42 22.50209 113.84563 19767 ft 476 kts 36°
2026-04-23 03:42 22.51914 113.86067 19947 ft 478 kts 36°
2026-04-23 03:42 22.55368 113.89136 20311 ft 482 kts 37°
2026-04-23 03:42 22.57076 113.90672 20500 ft 484 kts 37°
2026-04-23 03:43 22.59660 113.93022 20751 ft 486 kts 37°
2026-04-23 03:43 22.63241 113.95913 21053 ft 484 kts 24°
2026-04-23 03:43 22.65316 113.96889 21212 ft 480 kts 13°
2026-04-23 03:43 22.68559 113.97546 21424 ft 472 kts 357°
2026-04-23 03:44 22.71795 113.97249 21668 ft 464 kts 342°
2026-04-23 03:44 22.74760 113.96116 21911 ft 456 kts 328°
2026-04-23 03:44 22.77374 113.94238 22137 ft 448 kts 314°
2026-04-23 03:44 22.79473 113.91784 22363 ft 443 kts 304°
2026-04-23 03:45 22.81407 113.89122 22596 ft 445 kts 304°
2026-04-23 03:45 22.83291 113.86513 22829 ft 446 kts 304°
2026-04-23 03:45 22.85200 113.83858 23041 ft 447 kts 303°
2026-04-23 03:45 22.87115 113.81194 23267 ft 448 kts 304°
2026-04-23 03:46 22.89226 113.78682 23462 ft 456 kts 313°
2026-04-23 03:46 22.91802 113.76624 23648 ft 465 kts 324°
2026-04-23 03:46 22.94763 113.75138 23823 ft 475 kts 336°
2026-04-23 03:46 22.98007 113.74317 24005 ft 485 kts 348°
2026-04-23 03:47 23.01406 113.74171 24192 ft 492 kts 355°
2026-04-23 03:47 23.04833 113.74181 24376 ft 493 kts 355°
2026-04-23 03:47 23.08261 113.74198 24568 ft 494 kts 355°
2026-04-23 03:47 23.11702 113.74219 24766 ft 494 kts 355°
2026-04-23 03:48 23.15138 113.74239 25050 ft 493 kts 355°
2026-04-23 03:48 23.18556 113.74254 25342 ft 492 kts 355°
2026-04-23 03:48 23.21974 113.74190 25627 ft 486 kts 349°
2026-04-23 03:48 23.25267 113.73557 25907 ft 477 kts 339°
2026-04-23 03:49 23.28338 113.72310 26190 ft 467 kts 328°
2026-04-23 03:49 23.31103 113.70524 26482 ft 459 kts 319°
2026-04-23 03:49 23.33457 113.68333 26789 ft 452 kts 310°
2026-04-23 03:49 23.35453 113.65727 27101 ft 445 kts 302°
2026-04-23 03:50 23.37262 113.62994 27420 ft 444 kts 302°
2026-04-23 03:50 23.39066 113.60277 27739 ft 443 kts 302°
2026-04-23 03:50 23.40871 113.57562 28069 ft 441 kts 302°
2026-04-23 03:50 23.42668 113.54861 28407 ft 440 kts 302°
2026-04-23 03:51 23.44456 113.52170 28747 ft 438 kts 302°
2026-04-23 03:51 23.46236 113.49485 29080 ft 436 kts 302°
2026-04-23 03:51 23.48009 113.46807 29404 ft 435 kts 302°
2026-04-23 03:51 23.49815 113.44165 29743 ft 436 kts 306°
2026-04-23 03:52 23.51998 113.41916 30056 ft 442 kts 318°
2026-04-23 03:52 23.54659 113.40192 30317 ft 451 kts 330°
2026-04-23 03:52 23.57678 113.39132 30557 ft 462 kts 343°
2026-04-23 03:52 23.60913 113.38833 30803 ft 474 kts 355°
2026-04-23 03:53 23.64221 113.38976 31033 ft 475 kts 355°
2026-04-23 03:53 23.67524 113.39132 31274 ft 475 kts 355°
2026-04-23 03:53 23.70816 113.39287 31521 ft 474 kts 355°
2026-04-23 03:53 23.74116 113.39440 31763 ft 474 kts 355°
2026-04-23 03:54 23.77398 113.39591 32009 ft 473 kts 355°
2026-04-23 03:54 23.80697 113.39743 32269 ft 473 kts 355°
2026-04-23 03:54 23.83964 113.39894 32517 ft 473 kts 355°
2026-04-23 03:54 23.87268 113.40047 32776 ft 472 kts 355°
2026-04-23 03:55 23.90554 113.40200 33018 ft 472 kts 355°
2026-04-23 03:55 23.93826 113.40351 33264 ft 472 kts 355°
2026-04-23 03:55 23.97106 113.40500 33517 ft 472 kts 355°
2026-04-23 03:55 24.00390 113.40648 33761 ft 472 kts 355°
2026-04-23 03:56 24.03675 113.40798 34007 ft 472 kts 355°
2026-04-23 03:56 24.06946 113.40949 34241 ft 471 kts 355°
2026-04-23 03:56 24.10231 113.41100 34495 ft 471 kts 355°
2026-04-23 03:56 24.13504 113.41252 34718 ft 471 kts 354°
2026-04-23 03:57 24.16778 113.41405 34921 ft 471 kts 354°
2026-04-23 03:57 24.20053 113.41554 35050 ft 472 kts 354°
2026-04-23 03:57 24.26655 113.41788 35081 ft 476 kts 353°
2026-04-23 03:58 24.33281 113.41983 35088 ft 476 kts 353°
2026-04-23 03:58 24.39909 113.42175 35093 ft 477 kts 352°
2026-04-23 03:59 24.46540 113.42348 35090 ft 477 kts 352°
2026-04-23 03:59 24.53149 113.42527 35112 ft 479 kts 352°
2026-04-23 04:00 24.59810 113.42720 35122 ft 479 kts 352°
2026-04-23 04:00 24.66470 113.42909 35130 ft 479 kts 351°
2026-04-23 04:01 24.73129 113.43096 35131 ft 479 kts 351°
2026-04-23 04:01 24.79801 113.43288 35139 ft 479 kts 351°
2026-04-23 04:02 24.86462 113.43480 35274 ft 479 kts 351°
2026-04-23 04:02 24.93117 113.43663 35495 ft 478 kts 351°
2026-04-23 04:03 24.96443 113.43751 35635 ft 478 kts 351°
2026-04-23 04:03 24.99769 113.43838 35790 ft 478 kts 351°
2026-04-23 04:03 25.03090 113.43922 35981 ft 477 kts 351°
2026-04-23 04:03 25.06407 113.44005 36180 ft 476 kts 351°
2026-04-23 04:04 25.09712 113.44087 36410 ft 474 kts 351°
2026-04-23 04:04 25.13013 113.44180 36501 ft 474 kts 351°
2026-04-23 04:04 25.16309 113.44291 35921 ft 474 kts 351°
2026-04-23 04:04 25.19610 113.44409 35360 ft 475 kts 351°
2026-04-23 04:05 25.22914 113.44524 35150 ft 476 kts 351°
2026-04-23 04:05 25.26230 113.44627 35104 ft 477 kts 351°
2026-04-23 04:05 25.32885 113.44810 35121 ft 479 kts 351°
2026-04-23 04:06 25.39557 113.44989 35127 ft 481 kts 351°
2026-04-23 04:06 25.46246 113.45180 35127 ft 480 kts 351°
2026-04-23 04:07 25.52917 113.45383 35128 ft 480 kts 351°
2026-04-23 04:07 25.59595 113.45578 35125 ft 480 kts 351°
2026-04-23 04:08 25.66268 113.45770 35135 ft 480 kts 351°
2026-04-23 04:08 25.72945 113.45960 35140 ft 480 kts 351°
2026-04-23 04:09 25.79625 113.46156 35148 ft 480 kts 351°
2026-04-23 04:09 25.86306 113.46351 35145 ft 480 kts 350°
2026-04-23 04:10 25.92949 113.46304 35148 ft 475 kts 347°
2026-04-23 04:10 25.99537 113.45966 35147 ft 473 kts 346°
2026-04-23 04:11 26.06124 113.45611 35152 ft 475 kts 346°
2026-04-23 04:11 26.12730 113.45343 35146 ft 475 kts 347°
2026-04-23 04:12 26.19347 113.45111 35150 ft 476 kts 347°
2026-04-23 04:12 26.25955 113.44874 35150 ft 475 kts 347°
2026-04-23 04:13 26.32557 113.44618 35152 ft 474 kts 347°
2026-04-23 04:13 26.39157 113.44366 35150 ft 474 kts 347°
2026-04-23 04:14 26.45750 113.44108 35151 ft 474 kts 346°
2026-04-23 04:14 26.52295 113.43854 35151 ft 474 kts 346°
2026-04-23 04:15 26.58880 113.43606 35156 ft 474 kts 346°
2026-04-23 04:16 26.68759 113.43223 35155 ft 473 kts 346°
2026-04-23 04:16 26.75336 113.42970 35152 ft 473 kts 346°
2026-04-23 04:17 26.81928 113.42719 35147 ft 474 kts 346°
2026-04-23 04:17 26.88511 113.42470 35152 ft 473 kts 346°
2026-04-23 04:18 26.95095 113.42219 35150 ft 473 kts 346°
2026-04-23 04:18 27.01675 113.41967 35157 ft 473 kts 346°
2026-04-23 04:19 27.08253 113.41715 35158 ft 473 kts 346°
2026-04-23 04:19 27.14823 113.41458 35161 ft 472 kts 346°
2026-04-23 04:20 27.21344 113.41195 35157 ft 472 kts 346°
2026-04-23 04:20 27.27906 113.40937 35161 ft 472 kts 346°
2026-04-23 04:21 27.34473 113.40716 35157 ft 474 kts 347°
2026-04-23 04:21 27.41096 113.40783 35160 ft 478 kts 349°
2026-04-23 04:22 27.47747 113.41016 35155 ft 478 kts 350°
2026-04-23 04:22 27.54392 113.41207 35159 ft 477 kts 349°
2026-04-23 04:23 27.61023 113.41327 35159 ft 476 kts 349°
2026-04-23 04:23 27.67660 113.41483 35157 ft 479 kts 351°
2026-04-23 04:24 27.74342 113.42017 35155 ft 483 kts 353°
2026-04-23 04:24 27.81039 113.42747 35156 ft 484 kts 354°
2026-04-23 04:25 27.87739 113.43415 35153 ft 482 kts 353°
2026-04-23 04:25 27.94416 113.43989 35157 ft 481 kts 352°
2026-04-23 04:26 28.01085 113.44542 35150 ft 480 kts 352°
2026-04-23 04:26 28.07746 113.45115 35150 ft 480 kts 353°
2026-04-23 04:27 28.14409 113.45667 35147 ft 480 kts 352°
2026-04-23 04:27 28.21055 113.46133 35146 ft 478 kts 352°
2026-04-23 04:28 28.31017 113.46804 35145 ft 478 kts 352°
2026-04-23 04:28 28.36535 113.47199 35142 ft 478 kts 352°
2026-04-23 04:29 28.44289 113.47768 35144 ft 478 kts 352°
2026-04-23 04:29 28.50922 113.48244 35138 ft 477 kts 352°
2026-04-23 04:30 28.56430 113.48639 35141 ft 477 kts 352°
2026-04-23 04:30 28.63052 113.49109 35140 ft 476 kts 352°
2026-04-23 04:31 28.69659 113.49582 35148 ft 476 kts 352°
2026-04-23 04:31 28.76263 113.50053 35141 ft 475 kts 352°
2026-04-23 04:32 28.82854 113.50525 35261 ft 475 kts 349°
2026-04-23 04:32 28.86180 113.50756 35113 ft 480 kts 349°
2026-04-23 04:32 28.89506 113.50990 35103 ft 480 kts 349°
2026-04-23 04:33 28.96186 113.51472 35096 ft 482 kts 349°
2026-04-23 04:33 29.02888 113.51958 35108 ft 483 kts 349°
2026-04-23 04:34 29.09595 113.52439 35119 ft 483 kts 349°
2026-04-23 04:34 29.16303 113.52930 35129 ft 483 kts 350°
2026-04-23 04:35 29.23003 113.53422 35140 ft 482 kts 350°
2026-04-23 04:35 29.29702 113.53907 35141 ft 482 kts 350°
2026-04-23 04:36 29.36398 113.54462 35144 ft 483 kts 351°
2026-04-23 04:36 29.43052 113.55065 35146 ft 482 kts 351°
2026-04-23 04:37 29.49729 113.55664 35154 ft 481 kts 351°
2026-04-23 04:37 29.56393 113.56248 35151 ft 480 kts 351°
2026-04-23 04:38 29.63052 113.56817 35157 ft 479 kts 351°
2026-04-23 04:38 29.69700 113.57389 35159 ft 479 kts 352°
2026-04-23 04:39 29.76347 113.57967 35156 ft 479 kts 352°
2026-04-23 04:39 29.82984 113.58551 35153 ft 478 kts 352°
2026-04-23 04:40 29.89613 113.59134 35150 ft 478 kts 352°
2026-04-23 04:40 29.96271 113.60502 35149 ft 502 kts
2026-04-23 04:41 30.02794 113.63679 35145 ft 510 kts 13°
2026-04-23 04:41 30.09301 113.66940 35139 ft 510 kts 13°
2026-04-23 04:42 30.15808 113.70183 35141 ft 509 kts 13°
2026-04-23 04:42 30.22313 113.73429 35140 ft 509 kts 13°
2026-04-23 04:43 30.28820 113.76692 35144 ft 509 kts 13°
2026-04-23 04:43 30.35318 113.79940 35152 ft 509 kts 13°
2026-04-23 04:44 30.41814 113.83195 35153 ft 508 kts 13°
2026-04-23 04:44 30.48291 113.86465 35155 ft 508 kts 14°
2026-04-23 04:45 30.54763 113.89734 35155 ft 507 kts 14°
2026-04-23 04:45 30.61228 113.92993 35156 ft 506 kts 14°
2026-04-23 04:46 30.67685 113.96219 35154 ft 504 kts 13°
2026-04-23 04:46 30.74129 113.99444 35158 ft 506 kts 15°
2026-04-23 04:47 30.80493 114.03000 35159 ft 508 kts 17°
2026-04-23 04:47 30.86846 114.06571 35158 ft 506 kts 16°
2026-04-23 04:48 30.93213 114.10031 35162 ft 504 kts 15°
2026-04-23 04:48 30.99578 114.13447 35158 ft 503 kts 15°
2026-04-23 04:49 31.05920 114.16872 35159 ft 502 kts 15°
2026-04-23 04:49 31.12245 114.20312 35152 ft 501 kts 16°
2026-04-23 04:50 31.18560 114.23755 35152 ft 501 kts 16°
2026-04-23 04:50 31.24868 114.27200 35148 ft 500 kts 16°
2026-04-23 04:51 31.31171 114.30646 35155 ft 499 kts 15°
2026-04-23 04:51 31.34368 114.32111 35150 ft 488 kts
2026-04-23 04:51 31.37630 114.33003 35147 ft 476 kts 358°
2026-04-23 04:52 31.40884 114.33342 35143 ft 464 kts 351°
2026-04-23 04:52 31.44116 114.33423 35136 ft 464 kts 351°
2026-04-23 04:52 31.50584 114.33603 35123 ft 466 kts 351°
2026-04-23 04:53 31.57073 114.33800 35124 ft 467 kts 351°
2026-04-23 04:53 31.63573 114.33990 35129 ft 468 kts 351°
2026-04-23 04:54 31.70093 114.34175 35128 ft 469 kts 351°
2026-04-23 04:54 31.76620 114.34370 35132 ft 470 kts 351°
2026-04-23 04:55 31.83164 114.34569 35131 ft 471 kts 351°
2026-04-23 04:55 31.89720 114.34763 35135 ft 472 kts 351°
2026-04-23 04:56 31.96288 114.34972 35135 ft 473 kts 351°
2026-04-23 04:56 32.02865 114.35177 35138 ft 473 kts 351°
2026-04-23 04:57 32.09454 114.35378 35143 ft 474 kts 351°
2026-04-23 04:57 32.16054 114.35578 35150 ft 475 kts 351°
2026-04-23 04:58 32.22665 114.35775 35154 ft 475 kts 351°
2026-04-23 04:58 32.29285 114.36059 35155 ft 479 kts 353°
2026-04-23 04:59 32.35947 114.36673 35155 ft 482 kts 355°
2026-04-23 04:59 32.42626 114.37399 35150 ft 482 kts 354°
2026-04-23 05:00 32.49304 114.38058 35145 ft 481 kts 354°
2026-04-23 05:00 32.55987 114.38654 35143 ft 482 kts 353°
2026-04-23 05:01 32.62681 114.39246 35147 ft 483 kts 354°
2026-04-23 05:01 32.69384 114.39861 35143 ft 484 kts 354°
2026-04-23 05:02 32.76069 114.40488 35149 ft 485 kts 354°
2026-04-23 05:02 32.82842 114.41127 35155 ft 485 kts 354°
2026-04-23 05:03 32.89528 114.41743 35162 ft 485 kts 353°
2026-04-23 05:03 32.96256 114.42367 35162 ft 485 kts 354°
2026-04-23 05:04 33.02975 114.43000 35157 ft 485 kts 354°
2026-04-23 05:04 33.09703 114.43630 35165 ft 485 kts 354°
2026-04-23 05:05 33.16419 114.44258 35165 ft 484 kts 354°
2026-04-23 05:05 33.23133 114.44896 35171 ft 484 kts 354°
2026-04-23 05:06 33.29833 114.45535 35170 ft 483 kts 354°
2026-04-23 05:06 33.36531 114.46166 35174 ft 482 kts 354°
2026-04-23 05:07 33.43218 114.46789 35174 ft 482 kts 354°
2026-04-23 05:07 33.49901 114.47418 35176 ft 481 kts 354°
2026-04-23 05:08 33.56572 114.48048 35180 ft 480 kts 354°
2026-04-23 05:08 33.63233 114.48676 35177 ft 480 kts 355°
2026-04-23 05:09 33.69886 114.49300 35176 ft 479 kts 355°
2026-04-23 05:09 33.73210 114.49607 34756 ft 479 kts 357°
2026-04-23 05:09 33.76537 114.49916 34969 ft 480 kts 357°
2026-04-23 05:10 33.79819 114.50221 35139 ft 481 kts 357°
2026-04-23 05:10 33.83158 114.50532 35153 ft 482 kts 357°
2026-04-23 05:10 33.89835 114.51159 35174 ft 481 kts 357°
2026-04-23 05:11 33.96502 114.51793 35175 ft 480 kts 357°
2026-04-23 05:11 34.03159 114.52422 35182 ft 480 kts 357°
2026-04-23 05:12 34.09810 114.53054 35175 ft 479 kts 357°
2026-04-23 05:12 34.16459 114.53690 35176 ft 479 kts 357°
2026-04-23 05:13 34.23110 114.54322 35170 ft 479 kts 356°
2026-04-23 05:14 34.31966 114.55159 35171 ft 480 kts 356°
2026-04-23 05:14 34.38615 114.55791 35163 ft 480 kts 356°
2026-04-23 05:15 34.46350 114.56533 35172 ft 480 kts 356°
2026-04-23 05:15 34.53009 114.57169 35169 ft 480 kts 356°
2026-04-23 05:16 34.58585 114.57693 35173 ft 480 kts 356°
2026-04-23 05:16 34.65197 114.58319 35169 ft 480 kts 356°
2026-04-23 05:17 34.71849 114.58950 35175 ft 479 kts 356°
2026-04-23 05:17 34.78501 114.59584 35166 ft 479 kts 356°
2026-04-23 05:18 34.85147 114.60220 35172 ft 479 kts 356°
2026-04-23 05:18 34.91790 114.60853 35163 ft 479 kts 356°
2026-04-23 05:19 34.98426 114.61484 35164 ft 478 kts 356°
2026-04-23 05:19 35.05065 114.62122 35159 ft 478 kts 356°
2026-04-23 05:20 35.11697 114.62760 35162 ft 478 kts 356°
2026-04-23 05:20 35.18333 114.63390 35158 ft 478 kts 356°
2026-04-23 05:21 35.24970 114.64025 35154 ft 478 kts 356°
2026-04-23 05:21 35.31601 114.64669 35150 ft 478 kts 356°
2026-04-23 05:22 35.38189 114.65312 35147 ft 478 kts 356°
2026-04-23 05:22 35.44818 114.65954 35142 ft 478 kts 356°
2026-04-23 05:23 35.51446 114.66602 35135 ft 478 kts 356°
2026-04-23 05:23 35.58074 114.67247 35141 ft 478 kts 356°
2026-04-23 05:24 35.64695 114.67890 35140 ft 477 kts 356°
2026-04-23 05:24 35.71312 114.68537 35137 ft 477 kts 356°
2026-04-23 05:25 35.77921 114.69178 35127 ft 476 kts 356°
2026-04-23 05:25 35.84521 114.69820 35131 ft 476 kts 356°
2026-04-23 05:26 35.91112 114.70466 35123 ft 475 kts 356°
2026-04-23 05:26 35.97700 114.71120 35124 ft 475 kts 356°
2026-04-23 05:26 36.00995 114.71446 35416 ft 474 kts
2026-04-23 05:27 36.04260 114.71767 35244 ft 467 kts 359°
2026-04-23 05:27 36.07486 114.72085 35082 ft 463 kts 359°
2026-04-23 05:27 36.10688 114.72399 35086 ft 461 kts 359°
2026-04-23 05:28 36.17083 114.73021 35085 ft 461 kts 359°
2026-04-23 05:28 36.23470 114.73640 35085 ft 460 kts 359°
2026-04-23 05:29 36.29850 114.74266 35079 ft 460 kts 359°
2026-04-23 05:29 36.36223 114.75090 35081 ft 464 kts
2026-04-23 05:30 36.42337 114.77877 35086 ft 472 kts 21°
2026-04-23 05:30 36.48288 114.81333 35085 ft 472 kts 20°
2026-04-23 05:31 36.54248 114.84770 35081 ft 472 kts 20°
2026-04-23 05:31 36.60203 114.88212 35084 ft 472 kts 20°
2026-04-23 05:32 36.66147 114.91673 35084 ft 472 kts 20°
2026-04-23 05:32 36.72052 114.95117 35081 ft 471 kts 21°
2026-04-23 05:33 36.78025 114.98599 35077 ft 471 kts 21°
2026-04-23 05:33 36.83912 115.02035 35080 ft 470 kts 21°
2026-04-23 05:34 36.89838 115.05495 35079 ft 470 kts 21°
2026-04-23 05:34 36.95754 115.08963 35076 ft 469 kts 21°
2026-04-23 05:35 37.01663 115.12439 35078 ft 469 kts 21°
2026-04-23 05:35 37.07564 115.15910 35076 ft 468 kts 21°
2026-04-23 05:36 37.13456 115.19379 35074 ft 468 kts 21°
2026-04-23 05:36 37.19343 115.22850 35074 ft 467 kts 21°
2026-04-23 05:37 37.25222 115.26331 35076 ft 467 kts 21°
2026-04-23 05:37 37.31094 115.29806 35078 ft 466 kts 21°
2026-04-23 05:38 37.36963 115.33289 35075 ft 466 kts 21°
2026-04-23 05:38 37.42821 115.36765 35077 ft 465 kts 21°
2026-04-23 05:39 37.48672 115.40245 35073 ft 465 kts 21°
2026-04-23 05:39 37.54515 115.43730 35073 ft 464 kts 21°
2026-04-23 05:40 37.60351 115.47216 35072 ft 464 kts 21°
2026-04-23 05:40 37.66175 115.50707 35069 ft 463 kts 21°
2026-04-23 05:41 37.71994 115.54195 35066 ft 463 kts 21°
2026-04-23 05:41 37.77769 115.57788 35066 ft 465 kts 28°
2026-04-23 05:42 37.82763 115.63026 35062 ft 472 kts 45°
2026-04-23 05:42 37.87140 115.69209 35063 ft 472 kts 45°
2026-04-23 05:43 37.91489 115.75351 35063 ft 471 kts 45°
2026-04-23 05:43 37.95861 115.81536 35064 ft 471 kts 45°
2026-04-23 05:44 38.00233 115.87740 35062 ft 471 kts 45°
2026-04-23 05:44 38.04592 115.93943 35065 ft 471 kts 45°
2026-04-23 05:45 38.08951 116.00147 35056 ft 471 kts 45°
2026-04-23 05:45 38.13307 116.06356 35059 ft 471 kts 45°
2026-04-23 05:46 38.17652 116.12568 35060 ft 470 kts 45°
2026-04-23 05:46 38.21994 116.18785 35051 ft 469 kts 44°
2026-04-23 05:47 38.27006 116.23944 34825 ft 460 kts 26°
2026-04-23 05:47 38.29879 116.25676 34585 ft 455 kts 17°
2026-04-23 05:47 38.32887 116.26832 34353 ft 451 kts 12°
2026-04-23 05:47 38.35922 116.27862 34120 ft 450 kts 12°
2026-04-23 05:48 38.38947 116.28889 33879 ft 450 kts 12°
2026-04-23 05:48 38.41966 116.29918 33604 ft 449 kts 12°
2026-04-23 05:48 38.44982 116.30953 33331 ft 449 kts 13°
2026-04-23 05:48 38.47993 116.31995 33060 ft 448 kts 13°
2026-04-23 05:49 38.51005 116.33044 32791 ft 448 kts 13°
2026-04-23 05:49 38.54008 116.34090 32525 ft 448 kts 13°
2026-04-23 05:49 38.57007 116.35188 32256 ft 448 kts 18°
2026-04-23 05:49 38.59842 116.36847 32001 ft 451 kts 28°
2026-04-23 05:50 38.62397 116.39178 31740 ft 453 kts 39°
2026-04-23 05:50 38.64580 116.42095 31487 ft 456 kts 50°
2026-04-23 05:50 38.66289 116.45457 31235 ft 459 kts 61°
2026-04-23 05:50 38.67491 116.49242 30981 ft 461 kts 71°
2026-04-23 05:51 38.68417 116.53171 30731 ft 461 kts 71°
2026-04-23 05:51 38.69338 116.57103 30482 ft 461 kts 71°
2026-04-23 05:51 38.70256 116.61036 30239 ft 461 kts 71°
2026-04-23 05:51 38.71171 116.64965 29989 ft 460 kts 71°
2026-04-23 05:52 38.72082 116.68897 29722 ft 461 kts 71°
2026-04-23 05:52 38.72990 116.72828 29426 ft 461 kts 71°
2026-04-23 05:52 38.73898 116.76768 29139 ft 462 kts 71°
2026-04-23 05:52 38.74802 116.80712 28437 ft 462 kts 71°
2026-04-23 05:53 38.75711 116.84686 27209 ft 468 kts 72°
2026-04-23 05:53 38.76626 116.88700 26041 ft 471 kts 72°
2026-04-23 05:53 38.77545 116.92749 24800 ft 476 kts 73°
2026-04-23 05:53 38.78167 116.96946 23619 ft 483 kts 82°
2026-04-23 05:54 38.78225 117.01247 22774 ft 480 kts 92°
2026-04-23 05:54 38.77779 117.05473 21759 ft 480 kts 101°
2026-04-23 05:54 38.76830 117.09536 20948 ft 475 kts 109°
2026-04-23 05:54 38.75633 117.13436 19952 ft 462 kts 107°
2026-04-23 05:55 38.74871 117.17365 19137 ft 452 kts 97°
2026-04-23 05:55 38.74643 117.21357 18331 ft 450 kts 87°
2026-04-23 05:55 38.74683 117.22583 18061 ft 449 kts 84°
2026-04-23 05:59 38.74685 117.22603 18060 ft 449 kts 84°
2026-04-23 05:59 38.75263 117.26475 17435 ft 438 kts 72°
2026-04-23 06:00 38.76243 117.30126 16824 ft 430 kts 64°
2026-04-23 06:00 38.77412 117.33613 16329 ft 422 kts 71°
2026-04-23 06:00 38.77741 117.37270 16230 ft 412 kts 94°
2026-04-23 06:00 38.76936 117.40777 16127 ft 415 kts 118°
2026-04-23 06:01 38.75124 117.43623 16043 ft 414 kts 141°
2026-04-23 06:01 38.73508 117.44907 15976 ft 413 kts 157°
2026-04-23 06:01 38.70736 117.45711 15886 ft 409 kts 181°
2026-04-23 06:01 38.67970 117.45062 15790 ft 404 kts 205°
2026-04-23 06:02 38.65066 117.42183 15663 ft 396 kts 237°
2026-04-23 06:02 38.64208 117.40145 15609 ft 392 kts 252°
2026-04-23 06:02 38.63686 117.36751 15513 ft 390 kts 264°
2026-04-23 06:02 38.63355 117.33312 15428 ft 390 kts 264°
2026-04-23 06:03 38.63027 117.29874 15342 ft 389 kts 264°
2026-04-23 06:03 38.62699 117.26434 15256 ft 389 kts 264°
2026-04-23 06:03 38.62368 117.22961 15170 ft 389 kts 264°
2026-04-23 06:03 38.62254 117.19572 15077 ft 386 kts 276°
2026-04-23 06:04 38.62889 117.16261 14990 ft 384 kts 294°
2026-04-23 06:04 38.64267 117.13358 14904 ft 383 kts 310°
2026-04-23 06:04 38.66261 117.11116 14819 ft 383 kts 327°
2026-04-23 06:04 38.68694 117.09758 14741 ft 384 kts 345°
2026-04-23 06:05 38.71358 117.09435 14652 ft 387 kts
2026-04-23 06:05 38.73984 117.10213 14567 ft 391 kts 21°
2026-04-23 06:05 38.76298 117.12035 14473 ft 394 kts 40°
2026-04-23 06:05 38.78058 117.14735 14389 ft 398 kts 58°
2026-04-23 06:06 38.79312 117.17907 14309 ft 399 kts 62°
2026-04-23 06:06 38.80527 117.21102 14223 ft 399 kts 63°
2026-04-23 06:06 38.81737 117.24298 14140 ft 399 kts 63°
2026-04-23 06:06 38.82949 117.27493 14033 ft 398 kts 63°
2026-04-23 06:07 38.84414 117.30474 13583 ft 393 kts 47°
2026-04-23 06:07 38.86484 117.32695 13061 ft 387 kts 28°
2026-04-23 06:07 38.88951 117.33994 12567 ft 382 kts 12°
2026-04-23 06:07 38.91571 117.34304 11855 ft 378 kts 354°
2026-04-23 06:08 38.94110 117.33571 11274 ft 371 kts 335°
2026-04-23 06:08 38.96379 117.32164 11133 ft 354 kts 332°
2026-04-23 06:08 38.97876 117.31223 11052 ft 344 kts 332°
2026-04-23 06:09 38.98587 117.30780 11018 ft 339 kts 333°
2026-04-23 06:09 39.00669 117.29494 10896 ft 326 kts 332°
2026-04-23 06:10 39.02677 117.28242 10773 ft 315 kts 332°
2026-04-23 06:10 39.04606 117.27025 10651 ft 304 kts 332°
2026-04-23 06:10 39.06472 117.25842 10532 ft 294 kts 331°
2026-04-23 06:10 39.08317 117.24759 10328 ft 290 kts 341°
2026-04-23 06:11 39.10319 117.24540 10197 ft 293 kts
2026-04-23 06:11 39.12196 117.25480 10057 ft 299 kts 34°
2026-04-23 06:11 39.13584 117.27469 9880 ft 303 kts 59°
2026-04-23 06:11 39.14579 117.29913 9249 ft 312 kts 62°
2026-04-23 06:12 39.15525 117.32394 9001 ft 306 kts 63°
2026-04-23 06:12 39.16445 117.34860 8630 ft 305 kts 63°
2026-04-23 06:12 39.18273 117.39745 7353 ft 301 kts 63°
2026-04-23 06:13 39.19399 117.41979 6725 ft 296 kts 41°
2026-04-23 06:13 39.21118 117.43306 6136 ft 286 kts 12°
2026-04-23 06:13 39.23050 117.43456 5500 ft 276 kts 344°
2026-04-23 06:13 39.24777 117.42574 5122 ft 259 kts 329°
2026-04-23 06:14 39.26331 117.41553 4953 ft 242 kts 329°
2026-04-23 06:14 39.27816 117.40579 4835 ft 238 kts 327°
2026-04-23 06:14 39.29012 117.39183 4716 ft 230 kts 297°
2026-04-23 06:14 39.29493 117.37264 4453 ft 225 kts 268°
2026-04-23 06:15 39.29236 117.35291 4102 ft 224 kts 252°
2026-04-23 06:15 39.28835 117.33339 3748 ft 225 kts 252°
2026-04-23 06:15 39.28441 117.31414 3428 ft 226 kts 252°
2026-04-23 06:15 39.27838 117.29546 3086 ft 222 kts 227°
2026-04-23 06:16 39.26545 117.28583 2678 ft 223 kts 187°
2026-04-23 06:16 39.25077 117.29019 2413 ft 222 kts 148°
2026-04-23 06:16 39.23873 117.30263 2095 ft 217 kts 150°
2026-04-23 06:16 39.22555 117.31135 1839 ft 211 kts 158°
2026-04-23 06:17 39.21233 117.31919 1557 ft 207 kts 157°
2026-04-23 06:17 39.19980 117.32682 1301 ft 188 kts 157°
2026-04-23 06:17 39.18860 117.33369 1081 ft 169 kts 157°
2026-04-23 06:17 39.17848 117.33991 845 ft 154 kts 157°
2026-04-23 06:18 39.16916 117.34562 651 ft 145 kts 158°
2026-04-23 06:18 39.16034 117.35101 461 ft 137 kts 159°
2026-04-23 06:18 39.15162 117.35636 282 ft 140 kts 154°
2026-04-23 06:18 39.14278 117.36181 91 ft 141 kts 158°
2026-04-23 06:19 39.13433 117.36698 21 ft 120 kts 154°
2026-04-23 06:19 39.12837 117.37063 20 ft 70 kts 154°
2026-04-23 06:19 39.12544 117.37237 20 ft 30 kts 168°
2026-04-23 06:19 39.12360 117.37252 19 ft 24 kts 180°
2026-04-23 06:20 39.12293 117.37236 19 ft 3 kts 266°
2026-04-23 06:20 39.12292 117.37211 19 ft 3 kts 261°
2026-04-23 06:20 39.12289 117.37179 19 ft 6 kts 265°
2026-04-23 06:20 39.12333 117.37136 19 ft 12 kts 346°
2026-04-23 06:21 39.12427 117.37080 19 ft 18 kts 334°
2026-04-23 06:21 39.12553 117.37003 19 ft 21 kts 334°
2026-04-23 06:21 39.12690 117.36919 19 ft 17 kts 334°
2026-04-23 06:21 39.12732 117.36866 19 ft 6 kts 277°
2026-04-23 06:22 39.12706 117.36787 19 ft 15 kts 244°
2026-04-23 06:22 39.12648 117.36631 19 ft 21 kts 244°
2026-04-23 06:22 39.12582 117.36454 19 ft 23 kts 244°
2026-04-23 06:22 39.12543 117.36333 19 ft 7 kts 277°
2026-04-23 06:23 39.12578 117.36301 19 ft 6 kts 334°
2026-04-23 06:23 39.12633 117.36268 19 ft 10 kts 334°
2026-04-23 06:23 39.12687 117.36230 19 ft 8 kts 320°
2026-04-23 06:23 39.12719 117.36179 19 ft 7 kts 308°
2026-04-23 06:24 39.12739 117.36128 19 ft 8 kts 295°
2026-04-23 06:24 39.12764 117.36050 19 ft 12 kts 292°
2026-04-23 06:24 39.12789 117.35968 19 ft 6 kts 251°
2026-04-23 06:24 39.12776 117.35933 20 ft 4 kts 244°
2026-04-23 06:25 39.12768 117.35910 20 ft 1 kts 244°
2026-04-23 06:35 39.12768 117.35911 20 ft 0 kts 244°
2026-04-23 06:59 39.12768 117.35912 19 ft 0 kts 244°